sat.trackr.live / text

‹ back to catalog

HULIANWANG DIGUI-154

NORAD 67530 · 2026-013J

PAYLOAD ACTIVE UNKNOWN

§ Identity

Operator
Country
PRC
Launch date
2026-01-19
Launch site
WSC
Launch vehicle
Mass (kg)
RCS (m²)

External: N2YO · Heavens-Above · Gunter

§ Orbital elements

Epoch: 2026-09-20T13:40:31.174464Z

Period
108.33 min
Inclination
50.0088°
Eccentricity
0.0000711
Mean motion
13.29329636 rev/d
Perigee alt
1,148.8 km
Apogee alt
1,149.8 km
Semi-major
7,527.4 km
B*
6.3096e-5
RAAN
13.2149°
Arg perigee
106.4261°
Mean anomaly
253.6689°
Rev number
3,273

§ Raw data

HULIANWANG DIGUI-1541 67530U 26013J   26263.56980526 -.00000095  00000+0  63096-4 0  99952 67530  50.0088  13.2149 0000711 106.4261 253.6689 13.29329636 32731

JSON: /api/v1/satellites/67530 · /tle

For live sub-satellite position, see the globe view (requires WebGL).

§ Visibility from observer

Set your observer location to see the next 7 days of passes ≥ 10°. The values pass through the URL so the page stays shareable.

No JS? Fill the form by hand. The geolocation button needs JavaScript.